TimeCET,TemperatureF,Dew PointF,Humidity,Sea Level PressureIn,VisibilityMPH,Wind Direction,Wind SpeedMPH,Gust SpeedMPH,PrecipitationIn,Events,Conditions,WindDirDegrees,DateUTC
12:00 AM,33.8,32.0,93,29.98,3.1,ESE,2.3,-,N/A,,Partly Cloudy,110,2012-12-12 23:00:00
12:30 AM,33.8,32.0,93,29.98,3.1,East,3.5,-,N/A,,Partly Cloudy,90,2012-12-12 23:30:00
1:00 AM,33,31,92,30.02,3,East,2.3,,,,Mist,90,2012-12-13 00:00:00
1:00 AM,33.8,32.0,93,29.98,2.8,ENE,2.3,-,N/A,,Scattered Clouds,70,2012-12-13 00:00:00
1:30 AM,33.8,32.0,93,29.98,2.5,Variable,1.2,-,N/A,,Scattered Clouds,0,2012-12-13 00:30:00
2:00 AM,33.8,32.0,93,29.95,2.5,SE,3.5,-,N/A,,Mostly Cloudy,130,2012-12-13 01:00:00
2:30 AM,33.8,32.0,93,29.95,2.5,SE,2.3,-,N/A,,Scattered Clouds,130,2012-12-13 01:30:00
3:30 AM,35.6,33.8,93,29.95,-9999.0,ESE,6.9,-,N/A,Rain,Scattered Clouds,110,2012-12-13 02:30:00
4:00 AM,35.6,33.8,93,29.95,-9999.0,ESE,5.8,-,N/A,Rain,Mostly Cloudy,110,2012-12-13 03:00:00
4:30 AM,35.6,33.8,93,29.95,2.5,ESE,3.5,-,N/A,,Mostly Cloudy,110,2012-12-13 03:30:00
5:00 AM,35.6,33.8,93,29.95,-9999.0,East,5.8,-,N/A,Rain,Mostly Cloudy,90,2012-12-13 04:00:00
5:30 AM,35.6,33.8,93,29.92,2.5,East,6.9,-,N/A,,Mostly Cloudy,90,2012-12-13 04:30:00
6:00 AM,35.6,35.6,100,29.92,2.2,ESE,5.8,-,N/A,,Scattered Clouds,110,2012-12-13 05:00:00
6:30 AM,35.6,33.8,93,29.92,2.2,ESE,8.1,-,N/A,,Scattered Clouds,120,2012-12-13 05:30:00
7:00 AM,37,34,86,29.97,2,East,3.5,,,,Mist,90,2012-12-13 06:00:00
7:00 AM,37.4,35.6,93,29.92,2.2,Variable,2.3,-,N/A,,Scattered Clouds,0,2012-12-13 06:00:00
7:15 AM,35.6,33.8,93,29.92,1.6,ENE,3.5,-,N/A,,Mostly Cloudy,70,2012-12-13 06:15:00
7:30 AM,35.6,33.8,93,29.92,1.4,East,5.8,-,N/A,,Mostly Cloudy,80,2012-12-13 06:30:00
8:00 AM,35.6,35.6,100,29.92,1.4,East,8.1,-,N/A,,Mostly Cloudy,100,2012-12-13 07:00:00
8:30 AM,35.6,33.8,93,29.92,1.4,East,4.6,-,N/A,,Mostly Cloudy,90,2012-12-13 07:30:00
9:00 AM,35.6,33.8,93,29.92,1.4,ESE,5.8,-,N/A,,Mostly Cloudy,120,2012-12-13 08:00:00
9:30 AM,35.6,35.6,100,29.95,1.4,ESE,5.8,-,N/A,,Mostly Cloudy,120,2012-12-13 08:30:00
10:00 AM,39.2,35.6,87,29.95,1.6,ESE,5.8,-,N/A,,Mostly Cloudy,110,2012-12-13 09:00:00
10:30 AM,39.2,35.6,87,29.95,1.6,ESE,4.6,-,N/A,,Mostly Cloudy,120,2012-12-13 09:30:00
11:00 AM,39.2,35.6,87,29.95,1.8,ESE,9.2,-,N/A,,Mostly Cloudy,110,2012-12-13 10:00:00
11:30 AM,41.0,37.4,87,29.95,1.8,ESE,9.2,-,N/A,,Mostly Cloudy,110,2012-12-13 10:30:00
12:00 PM,42.8,37.4,81,29.92,1.9,East,8.1,-,N/A,,Scattered Clouds,100,2012-12-13 11:00:00
12:30 PM,42.8,37.4,81,29.92,-9999.0,East,9.2,-,N/A,,Scattered Clouds,100,2012-12-13 11:30:00
1:00 PM,45,38,69,29.93,3,East,9.2,,,,Mist,100,2012-12-13 12:00:00
1:00 PM,44.6,37.4,76,29.89,3.1,ESE,10.4,-,N/A,,Scattered Clouds,110,2012-12-13 12:00:00
1:30 PM,44.6,37.4,76,29.89,3.1,ESE,9.2,-,N/A,,Scattered Clouds,110,2012-12-13 12:30:00
2:00 PM,44.6,39.2,81,29.89,3.1,East,6.9,-,N/A,,Scattered Clouds,100,2012-12-13 13:00:00
2:30 PM,44.6,39.2,81,29.89,3.1,East,5.8,-,N/A,,Scattered Clouds,90,2012-12-13 13:30:00
3:00 PM,44.6,39.2,81,29.89,3.1,ESE,4.6,-,N/A,,Scattered Clouds,110,2012-12-13 14:00:00
3:30 PM,44.6,39.2,81,29.86,3.1,ESE,8.1,-,N/A,,Scattered Clouds,110,2012-12-13 14:30:00
4:00 PM,44.6,39.2,81,29.86,3.1,ESE,8.1,-,N/A,,Scattered Clouds,120,2012-12-13 15:00:00
4:30 PM,44.6,39.2,81,29.86,3.1,East,5.8,-,N/A,,Scattered Clouds,100,2012-12-13 15:30:00
5:00 PM,44.6,39.2,81,29.86,3.1,East,4.6,-,N/A,,Scattered Clouds,80,2012-12-13 16:00:00
5:30 PM,44.6,39.2,81,29.86,3.1,East,5.8,-,N/A,,Mostly Cloudy,90,2012-12-13 16:30:00
6:00 PM,44.6,39.2,81,29.86,3.1,East,8.1,-,N/A,,Scattered Clouds,100,2012-12-13 17:00:00
6:30 PM,42.8,39.2,87,29.86,3.1,East,5.8,-,N/A,,Scattered Clouds,100,2012-12-13 17:30:00
7:00 PM,44,39,78,29.87,3,ESE,6.9,,,Rain,Light Drizzle,110,2012-12-13 18:00:00
7:00 PM,42.8,39.2,87,29.86,3.1,ESE,6.9,-,N/A,,Scattered Clouds,120,2012-12-13 18:00:00
7:30 PM,42.8,39.2,87,29.86,2.5,ESE,5.8,-,N/A,Rain,Scattered Clouds,110,2012-12-13 18:30:00
8:00 PM,42.8,39.2,87,29.86,2.5,ESE,9.2,-,N/A,,Scattered Clouds,120,2012-12-13 19:00:00
8:30 PM,42.8,39.2,87,29.86,2.5,East,5.8,-,N/A,,Scattered Clouds,80,2012-12-13 19:30:00
9:00 PM,42.8,41.0,93,29.86,2.8,NE,4.6,-,N/A,,Scattered Clouds,50,2012-12-13 20:00:00
9:30 PM,41.0,39.2,93,29.86,2.2,ESE,4.6,-,N/A,,Partly Cloudy,110,2012-12-13 20:30:00
10:00 PM,42.8,39.2,87,29.86,3.1,Variable,1.2,-,N/A,,Partly Cloudy,0,2012-12-13 21:00:00
10:30 PM,41.0,39.2,93,29.86,2.5,ESE,4.6,-,N/A,,Partly Cloudy,110,2012-12-13 21:30:00
11:00 PM,41.0,39.2,93,29.86,2.2,East,4.6,-,N/A,,Partly Cloudy,90,2012-12-13 22:00:00